Regional Weather Roundup
Issued by NWS

Home | Current Version | Previous Version | Graphics & Text | Print | Product List | Glossary On
Versions: 1 2 3 4 5 6 7 8 9 10 11 12 13 14 15 16 17 18 19 20 21 22 23 24 25 26 27 28 29 30 31 32 33 34 35 36 37 38 39 40 41 42 43 44 45 46 47 48 49 50
784
ASUS43 KFSD 090002
RWRSD

WEATHER ROUNDUP FOR SOUTH DAKOTA
NATIONAL WEATHER SERVICE SIOUX FALLS SD
600 PM CST MON FEB 08 2016

NOTE: "FAIR" INDICATES FEW OR NO CLOUDS BELOW 12,000 FEET WITH NO
SIGNIFICANT WEATHER AND/OR OBSTRUCTIONS TO VISIBILITY.


SDZ001>005-009-010-012>017-090100-
NORTHWEST AND NORTH CENTRAL SOUTH DAKOTA

CITY           SKY/WX    TMP DP  RH WIND       PRES   REMARKS
BUFFALO          N/A     39  10  30 N16       30.19S
FAITH            N/A     35  11  36 NW15      30.22S WCI  25
MOBRIDGE       CLOUDY    34  19  54 N14       30.20R WCI  25
$$

SDZ012>016-024>037-041>051-057-063-072>074-090100-
SOUTHWEST AND SOUTH CENTRAL SOUTH DAKOTA

CITY           SKY/WX    TMP DP  RH WIND       PRES   REMARKS
RAPID CTY ARPT CLOUDY    41  16  36 N18       30.24S
PIERRE         CLOUDY    35  17  47 N14       30.21S WCI  26
CUSTER         CLOUDY    37  21  52 N12G24    30.22S
ELLSWORTH AFB  CLOUDY    40  16  36 N15G22    30.23S
PHILIP         CLOUDY    36  18  48 NW7       30.26S
PINE RIDGE     CLOUDY    37  10  32 NW6       30.27S
WINNER         CLOUDY    34  20  56 NW9       30.20F WCI  27
$$

SDZ004>011-016>023-039-040-090100-
NORTHEAST SOUTH DAKOTA

CITY           SKY/WX    TMP DP  RH WIND       PRES   REMARKS
ABERDEEN       CLEAR     26  11  52 N15       30.18R WCI  14
WATERTOWN      CLEAR     18  10  71 N20       30.10R WCI   2
BROOKINGS      MOCLDY    19  13  77 N22       30.07S WCI   2
SISSETON         N/A     14  11  87 N16G25    30.16R WCI  -2
$$

SDZ017-020-022-023-036>040-048>070-090100-
SOUTHEAST SOUTH DAKOTA

CITY           SKY/WX    TMP DP  RH WIND       PRES   REMARKS
SIOUX FALLS    MOCLDY    24  14  65 N16       30.10R WCI  11
HURON          CLEAR     29  16  58 N20       30.17R WCI  16
MITCHELL       CLOUDY    32  19  58 N17G31    30.16S WCI  21
YANKTON        PTCLDY    30  18  59 NW17      30.13F WCI  18
$$

ABBREVIATIONS USED IN REMARKS
   TC - TEMPERATURE IN CELSIUS
  WCI - WIND CHILL INDEX
   HX - HEAT INDEX
  VSB - VISIBILITY





USA.gov is the U.S. government's official web portal to all federal, state and local government web resources and services.